カタログに戻る

THORAD AGENA D DEB

運用中LEO
NORAD 4651·DEBRIS·🇺🇸 United States

打ち上げ Apr 8, 1970 から Vandenberg Space Force Base

Loading…

次のパス (今後24時間)

TLE

最新Source: Space-Track

元期: Sep 14, 2026, 09:26 UTC

1 04651U 70025AK  26257.39355304  .00001146  00000-0  76388-3 0  9991
2 04651 100.1542 221.2442 0040496 206.7370 153.1705 14.03233740848230

AllMySatでTHORAD AGENA D DEBをリアルタイム追跡

Download on the App Store